Terminal Aerodrome Forecast
Issued by NWS Paducah, KY

Home | Current Version | Previous Version | Text Only | Print | Product List | Glossary On
Versions: 1 2 3 4 5 6 7 8 9 10 11 12 13 14 15
000
FTUS43 KPAH 181100
TAFEVV
TAF
KEVV 181125Z 1812/1912 29004KT P6SM SCT050
     FM181400 32010G17KT P6SM BKN035
     FM190000 36003KT P6SM SKC
     FM190800 00000KT 4SM BR SKC=

USA.gov is the U.S. government's official web portal to all federal, state and local government web resources and services.